Snowfall_Accumulation
nan nan nan nan nan nan nan nan nan nan nan nan nan nan nan nan nan 0.0 0.0 0.0 0.0 0.2 0.0 0.0 0.0 0.0 0.1 0.1 0.1 0.0 0.9 0.5 0.8 1.9 2.5 1.2 1.0 0.4 0.4 0.1 1.9 5.0 4.9 4.1 2.0 3.5 5.3 0.0 0.0 0.4 0.9 0.0 0.1 0.1
nan nan nan nan nan nan nan nan nan nan nan nan nan nan nan nan nan nan 0.0 0.0 0.0 0.0 0.1 0.0 0.0 0.0 0.0 0.0 0.2 0.0 0.1 0.0 0.3 0.9 0.9 0.6 0.8 0.9 0.2 1.5 0.1 5.7 2.8 5.6 1.0 1.8 0.1 0.0 0.1 0.0 0.1 0.1 0.1 0.1
nan nan nan nan nan nan nan nan nan nan nan nan nan nan nan nan nan nan 0.0 0.0 0.0 0.2 0.2 0.0 0.0 0.0 0.0 0.0 0.0 0.6 0.0 0.0 0.0 0.0 0.3 0.2 0.2 0.0 1.6 0.4 0.2 0.1 0.0 3.9 0.8 0.1 0.0 0.1 0.0 0.0 0.0 0.1 0.0 0.0
nan nan nan nan nan nan nan nan nan nan nan nan nan nan nan nan nan nan 0.0 0.0 0.0 0.0 3.4 0.7 0.0 0.0 0.0 0.0 0.0 0.0 0.0 0.0 0.0 0.0 0.2 0.3 0.6 0.0 0.1 0.1 0.3 1.0 0.1 0.2 0.5 0.1 0.0 0.0 0.0 0.1 0.0 0.0 0.0 0.0
nan nan nan nan nan nan nan nan nan nan nan nan nan nan nan nan nan nan 0.0 0.0 0.0 0.1 1.5 0.4 0.0 0.0 0.0 0.0 0.0 0.0 0.0 0.0 0.0 0.1 0.9 0.6 0.0 0.2 0.0 0.0 1.1 0.0 0.1 1.9 2.3 0.3 0.6 0.1 0.1 0.0 0.0 0.0 0.0 0.0
nan nan nan nan nan nan nan nan nan nan nan nan nan nan nan nan nan 0.0 1.2 0.0 0.0 0.0 1.1 4.1 0.0 0.0 0.0 0.0 0.0 0.0 0.0 0.0 0.0 0.4 0.3 0.0 0.0 0.1 1.3 0.4 0.0 0.0 0.0 0.0 0.5 0.0 0.0 0.0 0.0 0.0 0.0 0.0 0.0 0.0
nan nan nan nan nan nan nan nan nan nan nan nan nan nan nan nan 0.0 0.2 0.2 0.0 nan 0.0 1.2 5.5 2.6 0.1 0.0 0.0 0.0 0.0 0.0 0.0 0.0 0.1 0.3 0.0 0.0 0.1 0.4 0.2 0.0 0.0 0.0 0.0 0.0 0.0 0.0 0.0 0.0 0.0 0.0 0.0 0.0 0.0
nan nan nan nan nan nan nan nan nan nan nan nan nan nan nan nan nan 0.0 0.0 nan nan 0.0 0.0 7.4 3.1 3.0 0.0 1.0 1.4 0.0 0.2 0.0 0.1 0.0 0.1 0.1 0.0 0.2 0.7 0.0 0.0 0.0 0.0 0.0 0.0 0.0 0.0 0.0 0.0 0.0 0.0 0.0 0.0 0.0
nan nan nan nan nan nan nan nan nan nan nan nan nan nan 0.0 0.0 0.3 0.0 nan nan 0.0 0.1 2.1 4.2 2.6 5.9 0.0 0.1 0.1 0.2 0.0 1.7 0.0 0.5 0.2 0.1 0.2 0.9 0.1 0.0 0.0 0.0 0.0 0.0 0.0 0.0 0.0 0.0 0.0 0.0 0.0 0.0 0.0 0.0
nan nan nan nan nan nan nan nan nan nan nan nan 0.0 0.6 10.4 0.2 nan nan 0.0 1.0 1.3 0.4 0.3 1.0 0.5 1.5 0.2 0.3 0.7 0.7 0.6 0.9 2.1 0.5 0.0 0.5 0.4 0.0 0.0 0.0 0.0 0.0 0.0 0.0 0.0 0.0 0.0 0.0 0.0 0.0 0.0 0.0 0.0 0.0
nan nan nan nan nan nan nan nan nan nan nan 0.2 2.7 1.0 0.0 nan 0.0 1.4 8.0 6.6 1.6 2.1 0.1 0.1 0.2 0.3 0.0 1.1 1.3 0.2 3.9 1.3 3.0 0.5 0.9 0.6 0.9 0.2 0.0 0.0 0.0 0.0 0.0 0.0 0.0 0.0 0.0 0.0 0.0 0.0 0.0 0.0 0.0 0.0
nan nan nan nan nan nan nan nan nan 0.0 0.1 0.0 0.0 0.0 0.0 0.2 2.3 4.0 6.3 2.4 0.3 0.1 0.1 0.2 0.1 0.0 0.2 0.1 0.6 1.6 1.1 2.7 0.9 0.2 3.3 1.7 0.8 0.0 0.0 0.0 0.0 0.0 0.0 0.0 0.0 0.0 0.0 0.0 0.0 0.0 0.0 0.0 0.0 0.1
nan nan nan nan nan nan nan nan nan nan nan 0.0 0.1 0.7 2.1 5.6 27.8 5.0 5.1 2.1 3.2 0.2 0.4 0.3 2.5 0.2 0.3 0.2 1.7 1.9 5.2 4.6 0.1 3.9 0.3 0.4 0.0 0.0 0.0 0.0 0.0 0.0 0.0 0.0 0.0 0.0 0.0 0.0 0.0 0.0 0.0 0.1 1.0 2.2
nan nan nan nan nan nan nan nan nan 0.0 0.0 1.5 6.0 33.0 5.4 6.3 0.9 0.6 0.3 0.3 0.4 0.3 0.2 0.1 0.5 0.6 0.6 1.6 1.0 6.3 0.8 0.5 5.6 2.8 1.2 0.4 0.0 0.0 0.0 0.0 0.0 0.0 0.0 1.6 0.0 0.0 0.1 0.2 1.0 2.5 5.0 5.3 4.6 3.6
nan nan nan nan nan nan nan nan nan 0.0 0.1 4.5 1.2 20.4 6.0 1.5 1.3 1.2 0.7 0.5 0.3 0.1 0.2 0.4 0.6 0.5 2.3 6.3 1.0 0.6 5.9 5.7 1.8 2.3 1.5 0.6 0.0 0.0 0.0 0.0 0.0 0.1 1.5 1.8 2.2 3.9 5.3 4.3 3.1 4.2 4.9 5.2 3.2 6.9
nan nan 0.0 nan nan nan nan nan 0.0 0.1 0.9 1.7 1.1 3.6 1.6 4.8 10.3 6.2 3.1 2.5 0.2 0.4 0.3 0.3 1.5 5.8 4.5 2.6 1.8 1.8 1.1 1.9 3.1 1.6 0.9 0.5 0.1 0.2 0.1 0.2 0.9 1.6 2.9 4.7 5.8 5.6 6.2 7.2 6.6 6.5 6.2 6.9 10.5 9.0
nan 0.1 nan nan nan nan nan 0.4 0.3 0.7 2.5 1.0 8.4 2.5 2.4 4.2 9.3 5.9 1.9 1.3 0.3 1.0 6.3 1.6 5.3 1.4 0.7 2.4 0.9 0.9 5.0 2.5 1.3 1.3 1.2 0.2 0.2 0.4 1.4 1.7 5.1 3.5 3.1 4.4 6.0 4.5 5.9 6.1 5.5 3.9 5.3 6.8 4.3 6.1
0.0 0.0 nan nan nan nan 0.5 0.5 1.0 1.3 2.1 2.4 10.7 8.8 2.8 3.9 5.6 4.6 2.4 1.0 1.1 1.0 0.6 0.3 0.8 0.8 6.2 1.9 5.1 3.1 2.5 3.4 2.3 2.2 1.8 1.1 0.8 1.6 1.1 1.5 3.2 2.7 2.0 4.9 4.6 4.1 3.9 4.7 3.4 4.3 3.4 2.7 4.3 5.3
0.0 0.0 nan nan 0.0 0.1 2.2 1.0 0.2 1.6 4.3 2.8 4.2 2.6 2.7 6.7 3.7 2.3 2.4 1.3 1.1 0.9 0.9 1.4 2.5 2.3 4.7 2.5 3.8 3.2 3.4 2.0 3.8 4.7 5.3 4.9 3.3 3.8 4.2 2.8 2.4 3.0 3.8 3.2 3.3 3.9 3.3 2.7 3.0 2.7 2.5 2.8 3.8 4.8
nan nan nan nan nan 0.3 0.2 1.6 0.1 0.2 2.6 4.5 2.1 3.5 3.3 5.6 4.0 7.4 4.4 1.7 0.9 2.6 5.8 5.3 6.0 7.6 4.9 4.6 2.8 2.5 2.6 2.3 1.9 5.3 9.1 7.7 4.7 3.4 4.1 2.8 3.7 2.7 2.6 2.1 3.3 1.3 2.4 2.3 2.5 2.8 3.1 3.5 5.1 6.8
nan nan nan 0.0 0.3 0.1 0.4 1.5 0.4 0.5 1.2 2.1 2.4 1.0 6.3 1.2 3.1 5.2 3.2 0.8 5.4 5.9 4.9 6.5 8.4 10.4 7.8 6.0 2.9 1.4 2.2 0.7 3.0 1.3 2.8 8.8 7.7 2.6 3.4 4.0 2.8 2.8 2.9 4.2 5.4 6.3 3.2 3.6 3.6 3.0 10.2 12.7 8.7 6.8
0.7 nan 0.8 0.1 0.6 0.4 1.5 0.3 0.5 0.7 1.3 2.5 1.6 0.8 4.9 11.1 10.1 7.2 0.8 5.9 5.8 7.3 6.4 6.2 6.8 6.6 5.3 4.8 6.2 2.3 3.4 1.4 1.4 1.5 1.2 1.2 7.2 4.9 6.6 5.7 3.2 6.4 5.7 6.7 3.6 6.4 4.9 2.8 3.6 4.6 8.0 12.6 5.7 6.2
nan 0.3 0.5 0.2 1.5 5.0 16.1 0.9 1.3 0.6 3.6 3.5 1.3 2.1 6.1 4.7 4.3 0.4 6.0 3.5 6.3 7.9 6.5 5.8 6.3 5.7 5.5 6.8 2.7 3.1 3.8 0.7 2.5 3.5 3.8 3.7 3.4 3.6 3.4 4.3 4.1 6.5 6.1 4.9 2.6 3.8 5.8 3.8 5.4 10.4 7.5 7.7 13.5 16.3
nan 3.7 6.7 4.1 3.1 15.6 1.2 5.4 0.5 1.1 1.3 3.4 3.3 5.2 0.9 3.0 1.0 4.0 5.6 5.3 7.5 4.3 4.2 6.5 3.8 5.8 3.3 1.6 3.1 4.1 5.1 2.5 2.1 2.7 3.3 2.4 2.7 5.4 2.9 3.1 3.4 3.0 2.2 2.2 3.1 5.5 4.7 10.2 7.4 8.2 12.1 19.6 24.0 21.4
14.7 23.4 9.7 29.7 3.4 9.2 7.1 5.7 2.9 1.8 7.0 4.9 3.8 8.0 12.8 1.4 7.9 5.6 3.0 4.7 4.4 5.0 4.9 5.3 3.1 2.5 2.7 4.3 4.2 5.7 4.6 2.6 3.2 2.6 4.6 2.9 2.6 3.1 3.6 2.1 2.2 2.1 2.0 8.6 11.1 14.3 14.3 13.7 14.4 15.2 9.8 22.2 8.5 11.1
33.7 15.6 15.4 4.8 10.8 5.1 3.2 8.5 9.1 10.5 5.5 6.9 6.1 3.7 3.5 7.9 6.0 7.5 2.3 4.5 5.7 3.4 13.8 11.0 7.8 5.3 4.3 2.9 4.9 4.3 5.0 2.7 1.8 2.9 4.8 2.4 3.2 4.9 7.0 6.1 5.2 5.4 2.6 5.2 10.2 17.9 14.8 15.2 18.7 10.6 18.2 9.9 8.6 20.5
30.3 18.0 1.3 0.2 0.4 0.3 9.3 6.6 1.2 4.3 6.8 9.5 5.4 8.0 7.7 15.1 11.5 3.2 1.9 2.1 1.9 3.3 2.8 2.6 2.2 2.9 3.3 4.4 4.1 4.4 3.5 3.0 2.8 3.3 1.9 1.6 1.6 1.3 3.9 10.2 7.1 5.5 3.3 6.0 9.3 17.9 20.0 20.2 21.6 16.1 19.9 19.7 19.7 22.4
4.9 2.2 12.9 6.2 8.5 1.4 7.3 5.2 5.8 7.4 3.7 1.5 4.6 10.1 11.8 9.9 6.0 3.1 2.9 3.3 4.2 2.3 2.3 2.5 2.4 1.9 2.4 3.1 4.3 6.5 7.8 7.3 6.7 4.4 3.1 2.8 2.9 5.5 5.8 6.0 5.9 7.7 6.9 13.5 15.8 18.6 15.1 21.6 24.4 24.2 23.0 25.2 26.6 22.3
6.6 2.5 2.7 13.0 5.8 4.8 7.2 7.7 6.5 2.5 1.5 2.9 12.2 7.2 5.5 3.0 8.6 5.0 5.2 4.3 4.3 3.9 5.3 7.3 12.7 10.6 7.2 6.2 9.1 7.5 8.5 9.8 9.2 10.6 12.9 14.3 13.4 12.2 10.0 9.8 9.7 12.8 11.4 12.3 7.9 9.9 12.1 18.3 21.1 23.7 19.0 26.5 27.0 29.0
6.6 2.6 6.1 7.9 11.7 7.7 15.9 11.0 12.9 10.3 1.6 3.7 2.1 1.5 2.2 6.0 10.8 5.0 5.7 5.9 7.8 17.9 23.1 18.7 20.6 19.3 29.0 20.7 19.6 14.1 14.2 16.9 13.9 19.8 21.9 17.1 14.6 13.8 15.3 18.7 18.3 17.5 16.8 29.5 20.6 10.9 9.0 19.4 16.3 30.1 26.4 25.6 26.1 27.9
3.2 8.3 9.1 5.1 10.9 17.8 17.4 17.7 18.0 9.1 9.2 13.7 15.1 14.7 11.6 9.3 10.9 7.1 7.1 10.6 12.5 30.7 32.0 34.9 34.1 32.3 27.8 18.9 28.3 27.1 20.3 26.7 12.4 8.9 8.2 13.9 16.4 21.1 22.2 19.7 20.5 22.6 23.4 22.7 28.9 24.1 23.0 26.7 26.6 25.1 19.4 17.1 18.7 20.1
11.3 16.3 18.8 12.6 15.9 24.2 14.1 26.5 19.3 17.6 21.9 20.6 24.9 20.8 25.0 21.8 13.5 14.2 17.9 23.2 25.9 29.6 8.9 23.9 34.4 18.7 16.0 13.7 22.5 18.9 9.7 13.3 13.7 13.9 12.5 17.3 20.1 22.6 14.5 12.6 26.5 25.8 22.2 22.6 22.3 23.3 18.9 25.0 24.6 26.6 23.9 20.3 19.1 17.2
26.8 18.9 14.0 13.4 26.6 13.4 15.8 18.8 5.4 18.0 17.0 19.3 22.6 21.0 20.0 17.5 12.7 20.4 10.9 21.1 25.1 26.4 23.1 28.4 28.3 31.2 17.5 14.9 15.3 17.0 12.7 16.7 15.8 10.5 9.2 9.2 9.1 10.4 17.5 24.5 28.1 23.5 15.3 21.0 23.9 22.6 18.3 14.5 18.1 18.5 19.9 22.5 20.8 19.2
Water_Equivalent
nan nan nan nan nan nan nan nan nan nan nan nan nan nan nan nan nan 0.00 0.00 0.00 0.00 0.07 0.00 0.00 0.00 0.00 0.01 0.01 0.03 0.01 0.18 0.10 0.18 0.34 0.70 0.20 0.25 0.09 0.09 0.02 0.39 0.92 0.95 0.89 0.42 0.67 0.86 0.00 0.00 0.07 0.19 0.01 0.02 0.03
nan nan nan nan nan nan nan nan nan nan nan nan nan nan nan nan nan nan 0.00 0.00 0.00 0.00 0.02 0.00 0.00 0.00 0.00 0.00 0.04 0.00 0.03 0.00 0.09 0.23 0.22 0.15 0.23 0.29 0.03 0.27 0.03 1.05 0.59 0.92 0.18 0.34 0.02 0.00 0.02 0.01 0.02 0.03 0.03 0.03
nan nan nan nan nan nan nan nan nan nan nan nan nan nan nan nan nan nan 0.00 0.00 0.00 0.08 0.06 0.01 0.00 0.00 0.00 0.00 0.00 0.17 0.00 0.00 0.00 0.00 0.10 0.07 0.04 0.01 0.39 0.09 0.04 0.02 0.00 1.02 0.16 0.01 0.01 0.02 0.00 0.00 0.00 0.02 0.00 0.00
nan nan nan nan nan nan nan nan nan nan nan nan nan nan nan nan nan nan 0.00 0.00 0.00 0.00 0.85 0.22 0.00 0.00 0.00 0.00 0.00 0.00 0.00 0.00 0.00 0.00 0.06 0.11 0.18 0.00 0.02 0.04 0.07 0.25 0.03 0.05 0.11 0.03 0.00 0.01 0.01 0.02 0.01 0.00 0.00 0.00
nan nan nan nan nan nan nan nan nan nan nan nan nan nan nan nan nan nan 0.00 0.00 0.00 0.03 0.33 0.10 0.00 0.00 0.00 0.00 0.00 0.00 0.00 0.00 0.01 0.04 0.30 0.16 0.00 0.05 0.00 0.00 0.26 0.00 0.01 0.38 0.48 0.06 0.15 0.02 0.04 0.01 0.01 0.00 0.00 0.00
nan nan nan nan nan nan nan nan nan nan nan nan nan nan nan nan nan 0.00 0.35 0.00 0.00 0.00 0.28 0.72 0.00 0.00 0.00 0.00 0.00 0.00 0.00 0.00 0.01 0.08 0.09 0.00 0.00 0.02 0.41 0.09 0.00 0.00 0.00 0.01 0.13 0.00 0.00 0.00 0.00 0.00 0.00 0.00 0.00 0.00
nan nan nan nan nan nan nan nan nan nan nan nan nan nan nan nan 0.00 0.07 0.04 0.00 nan 0.00 0.34 1.42 0.43 0.04 0.00 0.00 0.01 0.00 0.00 0.00 0.00 0.03 0.10 0.00 0.00 0.02 0.13 0.08 0.00 0.00 0.00 0.00 0.00 0.00 0.00 0.00 0.00 0.00 0.00 0.00 0.00 0.00
nan nan nan nan nan nan nan nan nan nan nan nan nan nan nan nan nan 0.00 0.00 nan nan 0.00 0.01 2.21 0.61 0.53 0.00 0.22 0.29 0.00 0.03 0.01 0.03 0.00 0.05 0.05 0.01 0.07 0.17 0.00 0.00 0.00 0.00 0.00 0.00 0.00 0.00 0.00 0.00 0.00 0.00 0.00 0.00 0.00
nan nan nan nan nan nan nan nan nan nan nan nan nan nan 0.00 0.00 0.12 0.00 nan nan 0.00 0.04 0.59 1.30 0.70 1.49 0.00 0.03 0.02 0.05 0.00 0.45 0.01 0.18 0.09 0.03 0.08 0.22 0.03 0.00 0.00 0.00 0.00 0.00 0.00 0.00 0.00 0.00 0.00 0.00 0.00 0.00 0.00 0.00
nan nan nan nan nan nan nan nan nan nan nan nan 0.00 0.25 3.44 0.10 nan nan 0.01 0.37 0.45 0.15 0.09 0.31 0.08 0.37 0.05 0.11 0.21 0.22 0.18 0.28 0.68 0.17 0.00 0.15 0.11 0.00 0.00 0.00 0.00 0.00 0.00 0.00 0.00 0.00 0.00 0.00 0.00 0.00 0.00 0.00 0.00 0.00
nan nan nan nan nan nan nan nan nan nan nan 0.08 0.95 0.31 0.00 nan 0.00 0.34 1.82 1.68 0.41 0.62 0.05 0.03 0.02 0.09 0.00 0.43 0.49 0.09 1.25 0.42 0.97 0.13 0.25 0.16 0.20 0.04 0.00 0.00 0.00 0.00 0.00 0.00 0.00 0.00 0.00 0.00 0.00 0.00 0.00 0.00 0.00 0.00
nan nan nan nan nan nan nan nan nan 0.00 0.03 0.00 0.00 0.00 0.00 0.08 0.62 1.12 2.10 0.84 0.13 0.03 0.03 0.09 0.04 0.01 0.09 0.03 0.20 0.61 0.38 0.92 0.24 0.06 0.88 0.39 0.17 0.00 0.00 0.00 0.00 0.00 0.00 0.00 0.00 0.00 0.00 0.00 0.00 0.00 0.00 0.00 0.00 0.02
nan nan nan nan nan nan nan nan nan nan nan 0.00 0.05 0.23 0.50 1.96 5.83 1.78 1.38 0.69 1.24 0.10 0.16 0.11 1.00 0.08 0.11 0.06 0.69 0.74 1.80 1.43 0.04 1.31 0.09 0.10 0.01 0.00 0.00 0.00 0.00 0.00 0.00 0.00 0.00 0.00 0.00 0.00 0.00 0.00 0.01 0.02 0.19 0.29
nan nan nan nan nan nan nan nan nan 0.00 0.00 0.42 2.04 6.99 2.03 2.36 0.31 0.22 0.11 0.12 0.15 0.13 0.08 0.06 0.21 0.21 0.24 0.60 0.41 2.20 0.29 0.17 1.65 0.76 0.32 0.11 0.00 0.00 0.00 0.00 0.00 0.00 0.01 0.44 0.00 0.00 0.02 0.04 0.14 0.37 0.80 0.87 0.68 0.42
nan nan nan nan nan nan nan nan nan 0.00 0.03 1.25 0.42 3.62 1.59 0.48 0.43 0.44 0.29 0.20 0.11 0.05 0.07 0.15 0.25 0.18 0.77 2.13 0.34 0.21 1.78 1.65 0.52 0.56 0.36 0.17 0.00 0.00 0.00 0.00 0.01 0.02 0.27 0.30 0.40 0.73 0.86 0.65 0.47 0.51 0.61 0.62 0.37 0.93
nan nan 0.00 nan nan nan nan nan 0.00 0.04 0.29 0.51 0.34 1.03 0.54 1.58 3.37 2.41 1.25 1.02 0.09 0.13 0.10 0.12 0.47 1.81 1.37 0.82 0.51 0.55 0.28 0.45 0.72 0.36 0.23 0.11 0.02 0.04 0.03 0.03 0.19 0.30 0.48 0.63 0.72 0.73 0.89 0.93 0.85 0.79 0.80 0.86 1.43 1.26
nan 0.03 nan nan nan nan nan 0.14 0.11 0.17 0.74 0.31 2.20 0.71 0.70 1.36 2.39 1.79 0.71 0.44 0.10 0.35 2.22 0.48 1.44 0.36 0.20 0.65 0.21 0.22 1.22 0.59 0.29 0.28 0.26 0.03 0.04 0.09 0.27 0.30 0.74 0.49 0.44 0.55 0.70 0.51 0.64 0.69 0.66 0.40 0.54 0.70 0.47 0.54
0.00 0.00 nan nan nan nan 0.18 0.18 0.29 0.35 0.53 0.61 2.19 1.97 0.69 0.90 1.50 1.47 0.78 0.30 0.33 0.30 0.20 0.06 0.18 0.21 1.65 0.44 1.09 0.64 0.51 0.67 0.51 0.49 0.39 0.25 0.18 0.34 0.21 0.29 0.49 0.41 0.31 0.58 0.52 0.45 0.41 0.52 0.34 0.54 0.33 0.30 0.37 0.46
0.00 0.00 nan nan 0.00 0.04 0.54 0.28 0.09 0.41 0.92 0.68 0.94 0.62 0.68 1.46 0.90 0.60 0.73 0.39 0.28 0.23 0.25 0.35 0.64 0.50 0.94 0.50 0.77 0.62 0.68 0.43 0.62 0.89 0.98 0.92 0.61 0.62 0.64 0.45 0.38 0.46 0.45 0.43 0.43 0.57 0.48 0.30 0.39 0.36 0.33 0.38 0.50 0.62
nan nan nan nan nan 0.10 0.06 0.44 0.04 0.06 0.62 0.87 0.52 0.72 0.70 1.07 0.96 2.13 1.25 0.40 0.23 0.63 1.23 1.07 1.00 1.22 0.81 0.83 0.55 0.50 0.53 0.51 0.39 0.82 1.26 1.15 0.93 0.55 0.66 0.44 0.60 0.40 0.39 0.29 0.48 0.31 0.33 0.34 0.35 0.39 0.44 0.50 0.82 0.98
nan nan nan 0.00 0.09 0.04 0.15 0.46 0.10 0.16 0.30 0.42 0.54 0.26 1.21 0.32 0.72 1.19 0.75 0.19 1.41 1.13 0.82 0.98 1.28 1.55 1.34 1.14 0.69 0.34 0.44 0.17 0.55 0.26 0.46 1.09 1.11 0.47 0.56 0.69 0.49 0.46 0.39 0.47 0.83 0.75 0.59 0.52 0.47 0.45 2.49 2.92 1.81 1.35
0.21 nan 0.25 0.04 0.22 0.14 0.50 0.10 0.16 0.22 0.38 0.55 0.39 0.24 1.17 2.77 2.48 1.48 0.21 1.32 0.90 1.00 0.94 0.94 0.98 0.96 0.77 0.71 0.97 0.42 0.60 0.27 0.26 0.33 0.32 0.26 0.82 0.63 0.69 0.67 0.42 0.75 0.68 0.96 0.53 1.09 0.72 0.41 0.67 0.94 1.78 2.74 1.11 1.23
nan 0.08 0.17 0.08 0.47 1.20 2.69 0.27 0.38 0.17 0.92 0.84 0.37 0.50 1.42 1.03 0.86 0.11 1.26 0.50 0.85 1.10 1.03 0.84 0.91 0.84 0.74 0.90 0.35 0.44 0.60 0.11 0.42 0.53 0.58 0.53 0.47 0.54 0.48 0.55 0.56 1.08 0.90 0.59 0.37 0.63 0.99 1.01 1.09 2.41 1.70 1.70 3.18 3.52
nan 1.00 1.82 1.26 0.83 3.05 0.41 1.52 0.17 0.30 0.38 0.83 0.83 1.05 0.19 0.62 0.26 0.87 0.99 0.81 1.02 0.61 0.58 0.79 0.56 0.74 0.45 0.20 0.42 0.54 0.73 0.45 0.32 0.39 0.52 0.38 0.36 0.59 0.38 0.39 0.49 0.46 0.34 0.35 0.59 1.08 0.91 2.34 2.19 1.66 2.66 4.71 5.72 4.70
3.37 4.66 2.67 4.22 1.11 2.43 1.88 1.59 0.76 0.49 1.33 1.21 0.81 1.55 2.40 0.35 1.46 1.10 0.48 0.63 0.66 0.73 0.68 0.74 0.47 0.40 0.39 0.57 0.53 0.59 0.52 0.41 0.42 0.32 0.58 0.42 0.41 0.47 0.47 0.31 0.35 0.35 0.44 1.90 2.28 3.15 3.12 2.95 3.12 3.16 1.92 5.21 1.71 2.21
5.64 4.13 3.24 1.33 2.49 1.35 0.75 1.53 1.65 2.09 1.13 1.30 1.33 0.77 0.97 1.70 1.13 1.16 0.34 0.76 1.03 0.48 2.56 1.89 1.17 0.67 0.51 0.41 0.50 0.44 0.57 0.41 0.31 0.37 0.50 0.32 0.46 0.80 1.23 1.02 0.84 0.83 0.53 1.30 2.30 3.94 3.04 3.26 3.66 1.92 3.37 2.00 2.47 4.28
4.49 3.77 0.36 0.07 0.12 0.09 1.91 1.70 0.37 1.07 1.27 1.57 1.07 1.55 1.62 2.26 1.85 0.43 0.28 0.29 0.27 0.49 0.40 0.41 0.34 0.39 0.42 0.51 0.51 0.57 0.49 0.46 0.42 0.41 0.31 0.26 0.27 0.24 0.81 1.88 1.14 0.83 0.64 1.30 2.16 4.46 4.43 4.19 4.40 2.91 3.50 3.86 4.20 4.50
1.09 0.55 1.64 1.51 1.92 0.38 1.45 1.00 1.17 1.38 0.81 0.32 0.90 1.56 1.94 1.70 0.84 0.44 0.41 0.48 0.71 0.34 0.34 0.37 0.36 0.28 0.37 0.45 0.60 0.85 1.05 1.07 1.11 0.82 0.62 0.55 0.53 1.02 1.05 1.17 1.10 2.54 1.45 2.88 3.64 3.91 3.07 4.63 4.96 4.88 4.22 4.23 4.56 4.23
1.28 0.63 0.69 1.54 1.00 1.01 1.32 1.44 1.19 0.45 0.24 0.60 2.58 1.22 0.94 0.41 1.28 0.75 0.72 0.66 0.78 0.71 0.88 1.17 1.65 2.06 1.15 0.95 1.39 1.08 1.34 1.61 1.51 1.52 2.07 2.13 2.19 1.87 1.61 1.66 1.63 2.17 2.06 2.24 2.59 2.62 2.55 3.23 3.79 4.27 4.33 4.82 4.62 5.02
1.12 0.73 1.35 1.39 1.33 1.13 2.71 1.88 2.35 1.95 0.26 0.74 0.41 0.29 0.34 0.84 1.37 0.77 0.92 0.94 1.30 3.26 4.86 3.83 3.60 3.42 4.91 3.44 2.89 2.14 2.36 3.09 2.51 3.41 3.63 2.66 2.24 2.14 2.52 3.20 3.16 3.07 3.01 5.59 3.23 1.54 2.53 3.33 3.76 4.88 4.13 3.74 4.05 4.26
0.78 1.99 2.09 1.16 1.84 3.40 3.16 3.62 3.65 1.82 2.01 3.12 3.35 3.36 2.09 1.38 1.66 1.05 1.00 1.51 2.10 6.13 6.14 6.41 6.19 6.46 5.00 3.06 5.11 4.74 2.97 4.73 1.89 1.38 1.36 2.18 2.61 3.55 3.82 3.33 3.53 3.98 4.17 3.82 4.71 3.31 3.03 3.77 4.07 4.05 2.84 2.50 2.50 2.62
2.36 3.56 2.81 1.67 2.64 4.65 2.82 5.71 4.36 3.77 4.88 4.32 5.05 4.36 4.78 4.01 2.15 1.77 2.11 3.20 3.98 4.77 2.71 3.87 5.88 2.58 2.41 2.19 3.92 3.01 3.01 1.80 1.85 1.84 1.99 2.60 3.24 3.75 2.37 1.98 4.57 4.63 3.75 3.51 3.36 3.42 2.76 3.49 3.27 3.65 3.10 2.71 2.42 2.15
5.54 3.89 2.56 2.28 4.78 2.65 3.08 4.04 1.13 3.61 3.17 3.65 4.19 3.76 3.83 3.18 1.81 2.48 1.17 2.76 3.48 3.78 3.12 4.39 4.64 5.57 2.80 2.41 2.18 2.42 2.86 2.07 2.64 3.45 3.03 3.03 3.02 2.91 2.68 4.02 4.84 3.71 2.26 3.12 3.51 3.12 2.68 1.99 2.10 2.36 2.40 2.74 2.46 2.23
SL_Ratio
nan nan nan nan nan nan nan nan nan nan nan nan nan nan nan nan nan nan nan nan nan 2.8 nan nan nan 6.7 5.8 5.8 4.1 5.5 5.1 4.4 4.3 5.5 3.5 5.7 3.9 4.4 4.8 4.9 4.9 5.4 5.2 4.6 4.7 5.1 6.1 nan nan 5.8 4.8 3.6 3.7 4.1
nan nan nan nan nan nan nan nan nan nan nan nan nan nan nan nan nan nan nan nan nan nan 3.8 nan nan nan nan nan 5.3 nan 4.1 4.0 3.1 3.9 4.1 3.8 3.3 3.2 5.4 5.4 3.1 5.4 4.8 6.1 5.3 5.3 3.7 2.5 3.7 3.3 3.3 3.7 3.9 3.8
nan nan nan nan nan nan nan nan nan nan nan nan nan nan nan nan nan nan nan nan nan 2.6 2.5 2.9 nan nan nan nan nan 3.7 nan nan nan nan 3.4 3.5 4.3 3.6 4.1 4.2 4.3 3.6 nan 3.8 5.0 4.1 3.6 3.3 nan 2.5 3.0 3.2 nan nan
nan nan nan nan nan nan nan nan nan nan nan nan nan nan nan nan nan nan nan nan nan nan 4.1 3.0 nan nan nan nan nan nan nan nan nan nan 2.9 3.1 3.1 5.0 3.2 3.8 4.2 4.2 3.4 3.6 4.3 3.3 0.0 3.3 3.3 3.1 3.0 3.0 2.0 nan
nan nan nan nan nan nan nan nan nan nan nan nan nan nan nan nan nan nan nan nan nan 3.7 4.5 3.6 nan nan nan nan nan nan nan 0.0 2.5 2.7 2.9 3.5 7.5 3.5 nan 0.0 4.5 nan 4.1 4.9 4.7 4.1 4.1 3.7 2.7 2.7 3.0 5.0 nan nan
nan nan nan nan nan nan nan nan nan nan nan nan nan nan nan nan nan nan 3.4 nan nan nan 4.0 5.7 5.0 nan nan nan nan nan nan nan 3.1 5.4 3.1 0.0 nan 3.7 3.2 4.0 0.0 nan nan 3.0 3.6 nan nan 2.9 nan nan nan 3.6 nan nan
nan nan nan nan nan nan nan nan nan nan nan nan nan nan nan nan nan 3.0 4.7 nan nan nan 3.7 3.9 6.2 2.8 nan 2.9 3.5 nan 0.0 0.0 5.0 3.3 3.0 5.5 5.0 4.0 2.7 2.6 nan nan nan nan nan nan nan nan nan nan nan nan nan nan
nan nan nan nan nan nan nan nan nan nan nan nan nan nan nan nan nan nan nan nan nan nan 2.6 3.3 5.1 5.6 5.0 4.6 4.6 nan 6.5 2.7 2.9 5.0 2.7 2.6 2.9 3.0 3.9 5.0 nan nan nan nan nan nan nan nan nan nan nan nan nan nan
nan nan nan nan nan nan nan nan nan nan nan nan nan nan nan nan 2.5 nan nan nan nan 3.5 3.6 3.2 3.8 4.0 10.0 5.3 3.3 3.4 3.0 3.7 2.4 3.1 2.7 3.4 3.0 4.1 3.8 nan nan nan nan nan nan nan nan nan nan nan nan nan nan nan
nan nan nan nan nan nan nan nan nan nan nan nan 0.0 2.5 3.0 2.5 nan nan 2.4 2.6 2.8 2.8 2.7 3.3 5.8 4.0 3.6 2.5 3.1 2.9 3.1 3.3 3.0 3.0 3.8 3.0 4.1 nan nan nan nan nan nan nan nan nan nan nan nan nan nan nan nan nan
nan nan nan nan nan nan nan nan nan nan nan 2.5 2.8 3.3 nan nan 5.0 4.2 4.4 3.9 3.9 3.3 2.5 2.9 6.4 3.7 nan 2.5 2.7 2.6 3.1 3.2 3.1 3.9 3.6 3.7 4.6 4.4 nan nan nan nan nan nan nan nan nan nan nan nan nan nan nan nan
nan nan nan nan nan nan nan nan nan nan 2.5 nan nan nan nan 3.2 3.6 3.6 3.0 2.9 2.8 2.7 2.5 2.6 2.6 2.5 2.6 2.5 2.8 2.6 2.8 2.9 3.5 3.7 3.7 4.3 4.7 4.0 nan nan nan nan nan nan nan 10.0 5.0 5.0 5.7 6.3 7.1 nan 5.0 4.9
nan nan nan nan nan nan nan nan nan nan nan nan 2.8 3.0 4.2 2.9 4.8 2.8 3.7 3.1 2.6 2.5 2.5 2.5 2.5 2.5 2.5 2.5 2.5 2.5 2.9 3.2 2.5 3.0 3.5 3.9 4.3 nan nan nan nan nan nan nan nan nan nan nan nan nan 4.5 4.8 5.1 7.6
nan nan nan nan nan nan nan nan nan nan nan 3.6 2.9 4.7 2.7 2.7 3.0 3.0 2.6 2.5 2.5 2.5 2.5 2.5 2.5 2.9 2.5 2.6 2.5 2.9 2.9 2.7 3.4 3.8 3.8 4.0 4.4 nan nan nan nan nan 3.2 3.6 3.8 3.6 4.0 4.9 7.0 6.6 6.2 6.1 6.7 8.5
nan nan nan nan nan nan nan nan nan nan 2.8 3.6 2.8 5.6 3.7 3.1 2.9 2.7 2.5 2.5 2.5 2.5 2.5 2.5 2.5 2.9 3.1 3.0 2.8 2.7 3.3 3.4 3.5 4.0 4.0 3.8 4.0 5.0 3.6 3.8 4.2 4.4 5.5 6.0 5.4 5.3 6.2 6.6 6.5 8.2 8.0 8.3 8.6 7.4
nan nan nan nan nan nan nan nan nan 2.7 3.2 3.3 3.2 3.5 2.9 3.0 3.1 2.6 2.5 2.5 2.6 3.1 2.6 2.6 3.1 3.2 3.3 3.2 3.6 3.3 4.0 4.3 4.3 4.4 4.2 4.3 4.8 4.8 4.3 4.3 4.8 5.2 6.1 7.5 8.1 7.8 6.9 7.7 7.7 8.3 7.8 8.0 7.3 7.2
nan 3.2 nan nan nan nan nan 2.8 2.8 4.1 3.4 3.2 3.8 3.5 3.4 3.1 3.9 3.3 2.7 3.0 2.9 3.0 2.8 3.3 3.7 3.8 3.3 3.7 4.4 3.9 4.1 4.2 4.3 4.7 4.5 4.8 4.6 4.8 5.2 5.4 6.9 7.1 6.9 8.1 8.5 8.9 9.2 8.8 8.3 9.7 9.9 9.7 9.1 11.4
nan nan nan nan nan nan 2.9 3.0 3.5 3.7 4.0 4.0 4.9 4.5 4.2 4.3 3.8 3.1 3.1 3.3 3.3 3.4 3.2 4.1 4.2 4.0 3.8 4.4 4.7 4.9 5.0 5.1 4.6 4.5 4.7 4.6 4.5 4.9 5.1 5.2 6.5 6.6 6.4 8.5 8.9 9.1 9.4 9.0 10.0 8.1 10.2 9.2 11.4 11.5
nan nan nan nan nan 3.0 4.1 3.6 2.9 3.9 4.7 4.2 4.5 4.1 3.9 4.6 4.2 3.8 3.3 3.4 3.8 3.8 3.7 3.9 3.9 4.7 5.0 5.0 5.0 5.2 5.0 4.6 6.2 5.3 5.4 5.3 5.4 6.1 6.5 6.1 6.3 6.6 8.4 7.4 7.5 6.9 6.8 8.9 7.8 7.5 7.5 7.4 7.7 7.8
nan nan nan nan nan 2.9 3.9 3.5 2.6 3.1 4.3 5.1 4.1 4.8 4.7 5.3 4.2 3.5 3.5 4.1 4.1 4.1 4.7 5.0 6.0 6.2 6.0 5.6 5.1 4.9 5.0 4.5 4.7 6.5 7.2 6.6 5.1 6.1 6.3 6.3 6.2 6.6 6.6 7.3 6.8 4.2 7.2 6.9 7.3 7.3 7.1 7.0 6.3 7.0
nan nan nan nan 3.1 3.2 2.5 3.3 3.4 3.1 4.0 5.0 4.5 3.9 5.2 3.7 4.3 4.3 4.3 4.2 3.8 5.2 6.0 6.6 6.6 6.7 5.8 5.3 4.2 4.1 5.0 4.2 5.4 5.1 6.0 8.1 6.9 5.4 6.1 5.7 5.8 6.0 7.4 8.9 6.6 8.4 5.4 6.9 7.8 6.6 4.1 4.3 4.8 5.0
3.3 nan 3.4 2.7 2.8 2.7 2.9 2.7 3.2 3.2 3.6 4.5 4.1 3.5 4.2 4.0 4.0 4.9 4.0 4.4 6.4 7.3 6.8 6.6 7.0 6.8 6.9 6.7 6.4 5.4 5.7 5.3 5.3 4.5 3.9 4.6 8.7 7.7 9.5 8.5 7.6 8.6 8.3 7.0 6.7 5.9 6.9 6.9 5.4 4.9 4.5 4.6 5.2 5.0
nan 3.6 2.9 2.7 3.2 4.1 6.0 3.5 3.5 3.5 3.9 4.1 3.5 4.2 4.3 4.5 5.0 3.9 4.8 6.9 7.4 7.2 6.3 6.9 6.9 6.8 7.4 7.6 7.8 6.9 6.4 6.1 6.1 6.6 6.5 6.9 7.2 6.7 7.1 7.9 7.3 6.1 6.8 8.3 6.9 5.9 5.8 3.7 4.9 4.3 4.4 4.6 4.3 4.6
nan 3.7 3.7 3.3 3.7 5.1 2.9 3.6 3.2 3.5 3.5 4.1 4.0 4.9 5.0 4.8 4.1 4.6 5.6 6.6 7.3 7.0 7.3 8.2 6.8 7.7 7.4 8.2 7.5 7.7 7.0 5.7 6.6 6.9 6.3 6.3 7.5 9.2 7.7 7.8 6.9 6.7 6.3 6.4 5.3 5.1 5.2 4.4 3.4 4.9 4.6 4.2 4.2 4.5
4.4 5.0 3.6 7.0 3.1 3.8 3.8 3.5 3.8 3.6 5.3 4.0 4.7 5.2 5.3 3.8 5.4 5.1 6.2 7.4 6.6 6.9 7.2 7.2 6.6 6.1 6.9 7.6 8.0 9.7 8.8 6.3 7.7 8.2 7.9 6.9 6.3 6.7 7.8 6.8 6.3 5.9 4.6 4.5 4.9 4.5 4.6 4.6 4.6 4.8 5.1 4.3 5.0 5.0
6.0 3.8 4.8 3.6 4.3 3.8 4.3 5.6 5.6 5.0 4.9 5.3 4.6 4.8 3.6 4.6 5.4 6.5 6.7 6.0 5.6 7.2 5.4 5.8 6.7 7.9 8.4 7.1 9.7 9.9 8.7 6.5 6.0 7.9 9.7 7.4 6.9 6.1 5.7 6.0 6.2 6.5 4.9 4.0 4.4 4.6 4.9 4.7 5.1 5.5 5.4 4.9 3.5 4.8
6.8 4.8 3.7 2.9 3.6 3.6 4.9 3.9 3.3 4.0 5.4 6.1 5.0 5.2 4.7 6.7 6.2 7.3 6.9 7.1 7.2 6.7 6.9 6.4 6.3 7.3 8.0 8.7 8.2 7.7 7.2 6.5 6.6 7.9 6.1 6.1 5.8 5.5 4.8 5.4 6.2 6.6 5.1 4.6 4.3 4.0 4.5 4.8 4.9 5.5 5.7 5.1 4.7 5.0
4.5 3.9 7.9 4.1 4.4 3.7 5.0 5.1 4.9 5.4 4.6 4.8 5.1 6.5 6.1 5.8 7.1 7.0 7.0 6.9 6.0 6.7 6.9 6.9 6.6 6.6 6.5 6.9 7.2 7.7 7.5 6.8 6.0 5.3 5.0 5.1 5.6 5.4 5.5 5.2 5.4 3.0 4.8 4.7 4.3 4.8 4.9 4.7 4.9 5.0 5.4 5.9 5.8 5.3
5.1 3.9 3.9 8.4 5.8 4.7 5.5 5.3 5.5 5.5 6.1 4.8 4.7 5.9 5.9 7.3 6.7 6.7 7.2 6.6 5.5 5.5 6.0 6.2 7.6 5.2 6.3 6.6 6.6 6.9 6.3 6.1 6.1 7.0 6.2 6.7 6.1 6.5 6.2 5.9 5.9 5.9 5.6 5.5 3.0 3.8 4.7 5.7 5.6 5.6 4.4 5.5 5.8 5.8
6.0 3.5 4.5 5.7 8.8 6.9 5.9 5.8 5.5 5.3 6.0 5.0 5.2 5.4 6.5 7.1 7.9 6.5 6.2 6.3 6.0 5.5 4.7 4.9 5.7 5.6 5.9 6.0 6.8 6.6 6.0 5.5 5.5 5.8 6.0 6.4 6.5 6.4 6.1 5.8 5.8 5.7 5.6 5.3 6.4 7.1 3.5 5.8 4.3 6.2 6.4 6.8 6.5 6.5
4.1 4.2 4.4 4.4 5.9 5.2 5.5 4.9 4.9 5.0 4.6 4.4 4.5 4.4 5.5 6.7 6.6 6.8 7.1 7.0 6.0 5.0 5.2 5.4 5.5 5.0 5.6 6.2 5.5 5.7 6.8 5.6 6.6 6.5 6.0 6.4 6.3 5.9 5.8 5.9 5.8 5.7 5.6 5.9 6.1 7.3 7.6 7.1 6.5 6.2 6.8 6.8 7.5 7.7
4.8 4.6 6.7 7.5 6.0 5.2 5.0 4.6 4.4 4.7 4.5 4.8 4.9 4.8 5.2 5.4 6.3 8.0 8.5 7.2 6.5 6.2 3.3 6.2 5.8 7.3 6.6 6.2 5.7 6.3 3.2 7.4 7.4 7.6 6.3 6.7 6.2 6.0 6.1 6.3 5.8 5.6 5.9 6.4 6.6 6.8 6.9 7.2 7.5 7.3 7.7 7.5 7.9 8.0
4.8 4.9 5.5 5.9 5.6 5.1 5.1 4.6 4.8 5.0 5.4 5.3 5.4 5.6 5.2 5.5 7.0 8.2 9.3 7.6 7.2 7.0 7.4 6.5 6.1 5.6 6.3 6.2 7.0 7.0 4.4 8.1 6.0 3.0 3.0 3.0 3.0 3.6 6.5 6.1 5.8 6.3 6.8 6.7 6.8 7.2 6.8 7.2 8.6 7.8 8.3 8.2 8.5 8.6